Year,Month,Day,Hour,Minute,Value (Times are PST for temperature in C)
2019,05,08,10,48,19.80
2019,05,08,10,49,19.80
2019,05,08,10,50,20.00
2019,05,08,10,51,20.10
2019,05,08,10,52,20.20
2019,05,08,10,53,20.40
2019,05,08,10,54,20.40
2019,05,08,10,55,20.50
2019,05,08,10,56,20.60
2019,05,08,10,57,20.60
2019,05,08,10,58,20.50
2019,05,08,10,59,20.40
2019,05,08,11,00,20.30
2019,05,08,11,01,20.20
2019,05,08,11,02,20.20
2019,05,08,11,03,20.10
2019,05,08,11,04,20.00
2019,05,08,11,05,20.00
2019,05,08,11,06,19.90
2019,05,08,11,07,19.90
2019,05,08,11,08,19.90
2019,05,08,11,09,19.90
2019,05,08,11,10,19.90
2019,05,08,11,11,19.90
2019,05,08,11,12,19.80
2019,05,08,11,13,19.80
2019,05,08,11,14,19.80
2019,05,08,11,15,19.80
2019,05,08,11,16,19.90
2019,05,08,11,17,20.00
2019,05,08,11,18,20.10
2019,05,08,11,19,20.20
2019,05,08,11,20,20.30
2019,05,08,11,21,20.40
2019,05,08,11,22,20.40
2019,05,08,11,23,20.60
2019,05,08,11,24,20.80
2019,05,08,11,25,20.90
2019,05,08,11,26,20.90
2019,05,08,11,27,20.90
2019,05,08,11,28,20.80
2019,05,08,11,29,20.80
2019,05,08,11,30,20.70
2019,05,08,11,31,20.70
2019,05,08,11,32,20.70
2019,05,08,11,33,20.70
2019,05,08,11,34,20.70
2019,05,08,11,35,20.80
2019,05,08,11,36,20.80
2019,05,08,11,37,21.00
2019,05,08,11,38,21.10
2019,05,08,11,39,21.10
2019,05,08,11,40,21.20
2019,05,08,11,41,21.40
2019,05,08,11,42,21.40
2019,05,08,11,43,21.40
2019,05,08,11,44,21.30
2019,05,08,11,45,21.30
2019,05,08,11,46,21.30
2019,05,08,11,47,21.30
2019,05,08,11,48,21.10
2019,05,08,11,49,21.00
2019,05,08,11,50,20.80
2019,05,08,11,51,20.80
2019,05,08,11,52,20.80
2019,05,08,11,53,20.90
2019,05,08,11,54,20.90
2019,05,08,11,55,21.00
2019,05,08,11,56,21.00
2019,05,08,11,57,21.10
2019,05,08,11,58,21.10
2019,05,08,11,59,21.10
2019,05,08,12,00,21.10
2019,05,08,12,01,21.20
2019,05,08,12,02,21.20
2019,05,08,12,03,21.20
2019,05,08,12,04,21.20
2019,05,08,12,05,21.30
2019,05,08,12,06,21.40
2019,05,08,12,07,21.40
2019,05,08,12,08,21.40
2019,05,08,12,09,21.40
2019,05,08,12,10,21.40
2019,05,08,12,11,21.30
2019,05,08,12,12,21.30
2019,05,08,12,13,21.20
2019,05,08,12,14,21.10
2019,05,08,12,15,21.10
2019,05,08,12,16,21.20
2019,05,08,12,17,21.20
2019,05,08,12,18,21.20
2019,05,08,12,19,21.30
2019,05,08,12,20,21.30
2019,05,08,12,21,21.40
2019,05,08,12,22,21.40
2019,05,08,12,23,21.30
2019,05,08,12,24,21.40
2019,05,08,12,25,21.40
2019,05,08,12,26,21.50
2019,05,08,12,27,21.50
2019,05,08,12,28,21.60
2019,05,08,12,29,21.70
2019,05,08,12,30,21.70
2019,05,08,12,31,21.80
2019,05,08,12,32,21.80
2019,05,08,12,33,21.90
2019,05,08,12,34,22.00
2019,05,08,12,35,22.00
2019,05,08,12,36,21.90
2019,05,08,12,37,21.90
2019,05,08,12,38,21.90
2019,05,08,12,39,22.00
2019,05,08,12,40,22.00
2019,05,08,12,41,22.20
2019,05,08,12,42,22.20
2019,05,08,12,43,22.20
2019,05,08,12,44,22.30
2019,05,08,12,45,22.30
2019,05,08,12,46,22.40
2019,05,08,12,47,22.40
2019,05,08,12,48,22.40
2019,05,08,12,49,22.50
2019,05,08,12,50,22.50
2019,05,08,12,51,22.60
2019,05,08,12,52,22.60
2019,05,08,12,53,22.70
2019,05,08,12,54,22.70
2019,05,08,12,55,22.70
2019,05,08,12,56,22.60
2019,05,08,12,57,22.60
2019,05,08,12,58,22.70
2019,05,08,12,59,22.80
2019,05,08,13,00,22.90
2019,05,08,13,01,22.90
2019,05,08,13,02,22.80
2019,05,08,13,03,22.70
2019,05,08,13,04,22.60
2019,05,08,13,05,22.50
2019,05,08,13,06,22.50
2019,05,08,13,07,22.60
2019,05,08,13,08,22.60
2019,05,08,13,09,22.60
2019,05,08,13,10,22.60
2019,05,08,13,11,22.60
2019,05,08,13,12,22.60
2019,05,08,13,13,22.50
2019,05,08,13,14,22.40
2019,05,08,13,15,22.30
2019,05,08,13,16,22.20
2019,05,08,13,17,22.20
2019,05,08,13,18,22.10
2019,05,08,13,19,22.00
2019,05,08,13,20,22.00
2019,05,08,13,21,21.90
2019,05,08,13,22,21.90
2019,05,08,13,23,21.90
2019,05,08,13,24,21.90
2019,05,08,13,25,21.80
2019,05,08,13,26,21.80
2019,05,08,13,27,21.80
2019,05,08,13,28,21.90
2019,05,08,13,29,22.00
2019,05,08,13,30,22.10
2019,05,08,13,31,22.20
2019,05,08,13,32,22.30
2019,05,08,13,33,22.40
2019,05,08,13,34,22.40
2019,05,08,13,35,22.40
2019,05,08,13,36,22.40
2019,05,08,13,37,22.30
2019,05,08,13,38,22.30
2019,05,08,13,39,22.30
2019,05,08,13,40,22.20
2019,05,08,13,41,22.20
2019,05,08,13,42,22.20
2019,05,08,13,43,22.20
2019,05,08,13,44,22.20
2019,05,08,13,45,22.30
2019,05,08,13,46,22.30
2019,05,08,13,47,22.30
2019,05,08,13,48,22.30
2019,05,08,13,49,22.30
2019,05,08,13,50,22.30
2019,05,08,13,51,22.30
2019,05,08,13,52,22.30
2019,05,08,13,53,22.30
2019,05,08,13,54,22.40
2019,05,08,13,55,22.40
2019,05,08,13,56,22.50
2019,05,08,13,57,22.60
2019,05,08,13,58,22.60
2019,05,08,13,59,22.60
2019,05,08,14,00,22.60
2019,05,08,14,01,22.60
2019,05,08,14,02,22.60
2019,05,08,14,03,22.70
2019,05,08,14,04,22.70
2019,05,08,14,05,22.70
2019,05,08,14,06,22.60
2019,05,08,14,07,22.70
2019,05,08,14,08,22.70
2019,05,08,14,09,22.70
2019,05,08,14,10,22.80
2019,05,08,14,11,22.80
2019,05,08,14,12,22.90
2019,05,08,14,13,22.90
2019,05,08,14,14,22.90
2019,05,08,14,15,22.90
2019,05,08,14,16,22.80
2019,05,08,14,17,22.60
2019,05,08,14,18,22.60
2019,05,08,14,19,22.70
2019,05,08,14,20,22.70
2019,05,08,14,21,22.80
2019,05,08,14,22,22.80
2019,05,08,14,23,22.80
2019,05,08,14,24,22.80
2019,05,08,14,25,22.70
2019,05,08,14,26,22.80
2019,05,08,14,27,22.80
2019,05,08,14,28,22.80
2019,05,08,14,29,22.80
2019,05,08,14,30,22.80
2019,05,08,14,31,22.80
2019,05,08,14,32,22.80
2019,05,08,14,33,22.90
2019,05,08,14,34,22.90
2019,05,08,14,35,22.90
2019,05,08,14,36,23.00
2019,05,08,14,37,23.10
2019,05,08,14,38,23.10
2019,05,08,14,39,23.10
2019,05,08,14,40,23.10
2019,05,08,14,41,23.00
2019,05,08,14,42,23.00
2019,05,08,14,43,22.90
2019,05,08,14,44,22.90
2019,05,08,14,45,23.00
2019,05,08,14,46,23.10
2019,05,08,14,47,23.20
2019,05,08,14,48,23.20
2019,05,08,14,49,23.30
2019,05,08,14,50,23.30
2019,05,08,14,51,23.30
2019,05,08,14,52,23.30
2019,05,08,14,53,23.30
2019,05,08,14,54,23.30
2019,05,08,14,55,23.30
2019,05,08,14,56,23.30
2019,05,08,14,57,23.30
2019,05,08,14,58,23.30
2019,05,08,14,59,23.30
2019,05,08,15,00,23.30
2019,05,08,15,01,23.30
2019,05,08,15,02,23.30
2019,05,08,15,03,23.40
2019,05,08,15,04,23.40
2019,05,08,15,05,23.40
2019,05,08,15,06,23.40
2019,05,08,15,07,23.40
2019,05,08,15,08,23.40
2019,05,08,15,09,23.50
2019,05,08,15,10,23.60
2019,05,08,15,11,23.60
2019,05,08,15,12,23.70
2019,05,08,15,13,23.80
2019,05,08,15,14,23.80
2019,05,08,15,15,23.80
2019,05,08,15,16,23.80
2019,05,08,15,17,23.80
2019,05,08,15,18,23.80
2019,05,08,15,19,23.80
2019,05,08,15,20,23.80
2019,05,08,15,21,23.80
2019,05,08,15,22,23.80
2019,05,08,15,23,23.70
2019,05,08,15,24,23.70
2019,05,08,15,25,23.60
2019,05,08,15,26,23.70
2019,05,08,15,27,23.70
2019,05,08,15,28,23.70
2019,05,08,15,29,23.70
2019,05,08,15,30,23.70
2019,05,08,15,31,23.70
2019,05,08,15,32,23.70
2019,05,08,15,33,23.60
2019,05,08,15,34,23.60
2019,05,08,15,35,23.60
2019,05,08,15,36,23.60
2019,05,08,15,37,23.60
2019,05,08,15,38,23.70
2019,05,08,15,39,23.70
2019,05,08,15,40,23.80
2019,05,08,15,41,23.80
2019,05,08,15,42,23.90
2019,05,08,15,43,23.90
2019,05,08,15,44,23.90
2019,05,08,15,45,23.90
2019,05,08,15,46,23.80
2019,05,08,15,47,23.80
2019,05,08,15,48,23.70
2019,05,08,15,49,23.80
2019,05,08,15,50,23.80
2019,05,08,15,51,23.80
2019,05,08,15,52,23.90
2019,05,08,15,53,23.90
2019,05,08,15,54,24.00
2019,05,08,15,55,24.00
2019,05,08,15,56,24.00
2019,05,08,15,57,23.90
2019,05,08,15,58,23.90
2019,05,08,15,59,23.90
2019,05,08,16,00,23.90
2019,05,08,16,01,24.00
2019,05,08,16,02,24.00
2019,05,08,16,03,24.00
2019,05,08,16,04,24.10
2019,05,08,16,05,24.10
2019,05,08,16,06,24.10
2019,05,08,16,07,24.10
2019,05,08,16,08,24.10
2019,05,08,16,09,24.10
2019,05,08,16,10,24.10
2019,05,08,16,11,24.20
2019,05,08,16,12,24.20
2019,05,08,16,13,24.20
2019,05,08,16,14,24.10
2019,05,08,16,15,24.10
2019,05,08,16,16,24.10
2019,05,08,16,17,24.10
2019,05,08,16,18,24.10
2019,05,08,16,19,24.10
2019,05,08,16,20,24.20
2019,05,08,16,21,24.20
2019,05,08,16,22,24.20
2019,05,08,16,23,24.20
2019,05,08,16,24,24.20
2019,05,08,16,25,24.10
2019,05,08,16,26,24.10
2019,05,08,16,27,24.10
2019,05,08,16,28,24.20
2019,05,08,16,29,24.20
2019,05,08,16,30,24.30
2019,05,08,16,31,24.30
2019,05,08,16,32,24.30
2019,05,08,16,33,24.20
2019,05,08,16,34,24.20
2019,05,08,16,35,24.30
2019,05,08,16,36,24.30
2019,05,08,16,37,24.30
2019,05,08,16,38,24.30
2019,05,08,16,39,24.40
2019,05,08,16,40,24.40
2019,05,08,16,41,24.40
2019,05,08,16,42,24.40
2019,05,08,16,43,24.40
2019,05,08,16,44,24.40
2019,05,08,16,45,24.50
2019,05,08,16,46,24.50
2019,05,08,16,47,24.40
2019,05,08,16,48,24.40
2019,05,08,16,49,24.30
2019,05,08,16,50,24.30
2019,05,08,16,51,24.30
2019,05,08,16,52,24.40
2019,05,08,16,53,24.40
2019,05,08,16,54,24.40
2019,05,08,16,55,24.40
2019,05,08,16,56,24.50
2019,05,08,16,57,24.50
2019,05,08,16,58,24.50
2019,05,08,16,59,24.50
2019,05,08,17,00,24.60
2019,05,08,17,01,24.60
2019,05,08,17,02,24.60
2019,05,08,17,03,24.50
2019,05,08,17,04,24.50
2019,05,08,17,05,24.50
2019,05,08,17,06,24.40
2019,05,08,17,07,24.30
2019,05,08,17,08,24.30
2019,05,08,17,09,24.30
2019,05,08,17,10,24.30
2019,05,08,17,11,24.30
2019,05,08,17,12,24.30
2019,05,08,17,13,24.40
2019,05,08,17,14,24.40
2019,05,08,17,15,24.30
2019,05,08,17,16,24.30
2019,05,08,17,17,24.40
2019,05,08,17,18,24.40
2019,05,08,17,19,24.40
2019,05,08,17,20,24.50
2019,05,08,17,21,24.50
2019,05,08,17,22,24.60
2019,05,08,17,23,24.60
2019,05,08,17,24,24.60
2019,05,08,17,25,24.60
2019,05,08,17,26,24.60
2019,05,08,17,27,24.70
2019,05,08,17,28,24.70
2019,05,08,17,29,24.70
2019,05,08,17,30,24.60
2019,05,08,17,31,24.60
2019,05,08,17,32,24.60
2019,05,08,17,33,24.60
2019,05,08,17,34,24.60
2019,05,08,17,35,24.60
2019,05,08,17,36,24.60
2019,05,08,17,37,24.60
2019,05,08,17,38,24.60
2019,05,08,17,39,24.60
2019,05,08,17,40,24.50
2019,05,08,17,41,24.50
2019,05,08,17,42,24.50
2019,05,08,17,43,24.50
2019,05,08,17,44,24.50
2019,05,08,17,45,24.50
2019,05,08,17,46,24.50
2019,05,08,17,47,24.50
2019,05,08,17,48,24.50
2019,05,08,17,49,24.50
2019,05,08,17,50,24.50
2019,05,08,17,51,24.50
2019,05,08,17,52,24.50
2019,05,08,17,53,24.50
2019,05,08,17,54,24.50
2019,05,08,17,55,24.50
2019,05,08,17,56,24.50
2019,05,08,17,57,24.60
2019,05,08,17,58,24.60
2019,05,08,17,59,24.60
2019,05,08,18,00,24.50
2019,05,08,18,01,24.50
2019,05,08,18,02,24.50
2019,05,08,18,03,24.50
2019,05,08,18,04,24.50
2019,05,08,18,05,24.40
2019,05,08,18,06,24.40
2019,05,08,18,07,24.40
2019,05,08,18,08,24.40
2019,05,08,18,09,24.40
2019,05,08,18,10,24.40
2019,05,08,18,11,24.40
2019,05,08,18,12,24.40
2019,05,08,18,13,24.40
2019,05,08,18,14,24.40
2019,05,08,18,15,24.40
2019,05,08,18,16,24.40
2019,05,08,18,17,24.40
2019,05,08,18,18,24.40
2019,05,08,18,19,24.40
2019,05,08,18,20,24.40
2019,05,08,18,21,24.40
2019,05,08,18,22,24.40
2019,05,08,18,23,24.40
2019,05,08,18,24,24.30
2019,05,08,18,25,24.30
2019,05,08,18,26,24.30
2019,05,08,18,27,24.30
2019,05,08,18,28,24.30
2019,05,08,18,29,24.30
2019,05,08,18,30,24.30
2019,05,08,18,31,24.30
2019,05,08,18,32,24.30
2019,05,08,18,33,24.30
2019,05,08,18,34,24.30
2019,05,08,18,35,24.30
2019,05,08,18,36,24.20
2019,05,08,18,37,24.20
2019,05,08,18,38,24.20
2019,05,08,18,39,24.20
2019,05,08,18,40,24.20
2019,05,08,18,41,24.20
2019,05,08,18,42,24.20
2019,05,08,18,43,24.20
2019,05,08,18,44,24.20
2019,05,08,18,45,24.20
2019,05,08,18,46,24.20
2019,05,08,18,47,24.30
2019,05,08,18,48,24.30
2019,05,08,18,49,24.40
2019,05,08,18,50,24.40
2019,05,08,18,51,24.40
2019,05,08,18,52,24.40
2019,05,08,18,53,24.40
2019,05,08,18,54,24.40
2019,05,08,18,55,24.40
2019,05,08,18,56,24.40
2019,05,08,18,57,24.30
2019,05,08,18,58,24.30
2019,05,08,18,59,24.30
2019,05,08,19,00,24.20
2019,05,08,19,01,24.20
2019,05,08,19,02,24.20
2019,05,08,19,03,24.20
2019,05,08,19,04,24.10
2019,05,08,19,05,24.10
2019,05,08,19,06,24.10
2019,05,08,19,07,24.00
2019,05,08,19,08,24.00
2019,05,08,19,09,24.00
2019,05,08,19,10,24.00
2019,05,08,19,11,23.90
2019,05,08,19,12,23.90
2019,05,08,19,13,23.90
2019,05,08,19,14,23.90
2019,05,08,19,15,23.90
2019,05,08,19,16,23.90
2019,05,08,19,17,23.90
2019,05,08,19,18,23.90
2019,05,08,19,19,23.90
2019,05,08,19,20,23.90
2019,05,08,19,21,23.90
2019,05,08,19,22,23.80
2019,05,08,19,23,23.80
2019,05,08,19,24,23.80
2019,05,08,19,25,23.80
2019,05,08,19,26,23.80
2019,05,08,19,27,23.90
2019,05,08,19,28,23.90
2019,05,08,19,29,23.90
2019,05,08,19,30,23.90
2019,05,08,19,31,23.90
2019,05,08,19,32,23.90
2019,05,08,19,33,23.80
2019,05,08,19,34,23.80
2019,05,08,19,35,23.80
2019,05,08,19,36,23.80
2019,05,08,19,37,23.70
2019,05,08,19,38,23.60
2019,05,08,19,39,23.60
2019,05,08,19,40,23.60
2019,05,08,19,41,23.40
2019,05,08,19,42,23.40
2019,05,08,19,43,23.40
2019,05,08,19,44,23.40
2019,05,08,19,45,23.30
2019,05,08,19,46,23.20
2019,05,08,19,47,23.20
2019,05,08,19,48,23.20
2019,05,08,19,49,23.10
2019,05,08,19,50,23.00
2019,05,08,19,51,23.00
2019,05,08,19,52,22.90
2019,05,08,19,53,22.80
2019,05,08,19,54,22.80
2019,05,08,19,55,22.70
2019,05,08,19,56,22.60
2019,05,08,19,57,22.60
2019,05,08,19,58,22.60
2019,05,08,19,59,22.60
2019,05,08,20,00,22.60
2019,05,08,20,01,22.60
2019,05,08,20,02,22.60
2019,05,08,20,03,22.60
2019,05,08,20,04,22.60
2019,05,08,20,05,22.60
2019,05,08,20,06,22.60
2019,05,08,21,48,15.70
2019,05,08,21,49,15.70
2019,05,08,21,50,15.70
2019,05,08,21,51,15.60
2019,05,08,21,52,15.50
2019,05,08,21,53,15.50
2019,05,08,21,54,15.50
2019,05,08,21,55,15.40
2019,05,08,21,56,15.40
2019,05,08,21,57,15.30
2019,05,08,21,58,15.30
2019,05,08,21,59,15.20
2019,05,08,22,00,15.10
2019,05,08,22,01,15.00
2019,05,08,22,02,15.00
2019,05,08,22,03,15.00
2019,05,08,22,04,15.00
2019,05,08,22,05,15.00
2019,05,08,22,06,15.00
2019,05,08,22,07,15.00
2019,05,08,22,08,14.90
2019,05,08,22,09,14.90
2019,05,08,22,10,14.80
2019,05,08,22,11,14.80
2019,05,08,22,12,14.80
2019,05,08,22,13,14.80
2019,05,08,22,14,14.70
2019,05,08,22,15,14.70
2019,05,08,22,16,14.70
2019,05,08,22,17,14.60
2019,05,08,22,18,14.60
2019,05,08,22,19,14.50
2019,05,08,22,20,14.50
2019,05,08,22,21,14.40
2019,05,08,22,22,14.40
2019,05,08,22,23,14.40
2019,05,08,22,24,14.30
2019,05,08,22,25,14.30
2019,05,08,22,26,14.30
2019,05,08,22,27,14.30
2019,05,08,22,28,14.20
2019,05,08,22,29,14.20
2019,05,08,22,30,14.20
2019,05,08,22,31,14.10
2019,05,08,22,32,14.10
2019,05,08,22,33,14.10
2019,05,08,22,34,14.10
2019,05,08,22,35,14.10
2019,05,08,22,36,14.10
2019,05,08,22,37,14.10
2019,05,08,22,38,14.00
2019,05,08,22,39,13.90
2019,05,08,22,40,13.80
2019,05,08,22,41,13.80
2019,05,08,22,42,13.80
2019,05,08,22,43,13.70
2019,05,08,22,44,13.70
2019,05,08,22,45,13.70
2019,05,08,22,46,13.70
2019,05,08,22,47,13.70
2019,05,08,22,48,13.60
2019,05,08,22,49,13.60
2019,05,08,22,50,13.60
2019,05,08,22,51,13.60
2019,05,08,22,52,13.50
2019,05,08,22,53,13.50
2019,05,08,22,54,13.50
2019,05,08,22,55,13.50
2019,05,08,22,56,13.40
2019,05,08,22,57,13.40
2019,05,08,22,58,13.40
2019,05,08,22,59,13.40
2019,05,08,23,00,13.30
2019,05,08,23,01,13.30
2019,05,08,23,02,13.30
2019,05,08,23,03,13.30
2019,05,08,23,04,13.30
2019,05,08,23,05,13.30
2019,05,08,23,06,13.30
2019,05,08,23,07,13.30
2019,05,08,23,08,13.30
2019,05,08,23,09,13.30
2019,05,08,23,10,13.30
2019,05,08,23,11,13.30
2019,05,08,23,12,13.30
2019,05,08,23,13,13.10
2019,05,08,23,14,13.10
2019,05,08,23,15,13.00
2019,05,08,23,16,13.00
2019,05,08,23,17,12.90
2019,05,08,23,18,12.90
2019,05,08,23,19,12.90
2019,05,08,23,20,12.90
2019,05,08,23,21,12.90
2019,05,08,23,22,12.80
2019,05,08,23,23,12.80
2019,05,08,23,24,12.80
2019,05,08,23,25,12.80
2019,05,08,23,26,12.80
2019,05,08,23,27,12.70
2019,05,08,23,28,12.70
2019,05,08,23,29,12.70
2019,05,08,23,30,12.70
2019,05,08,23,31,12.70
2019,05,08,23,32,12.60
2019,05,08,23,33,12.60
2019,05,08,23,34,12.60
2019,05,08,23,35,12.60
2019,05,08,23,36,12.60
2019,05,08,23,37,12.60
2019,05,08,23,38,12.60
2019,05,08,23,39,12.50
2019,05,08,23,40,12.40
2019,05,08,23,41,12.40
2019,05,08,23,42,12.40
2019,05,08,23,43,12.30
2019,05,08,23,44,12.30
2019,05,08,23,45,12.30
2019,05,08,23,46,12.30
2019,05,08,23,47,12.20
2019,05,08,23,48,12.20
2019,05,08,23,49,12.20
2019,05,08,23,50,12.20
2019,05,08,23,51,12.20
2019,05,08,23,52,12.20
2019,05,08,23,53,12.20
2019,05,08,23,54,12.20
2019,05,08,23,55,12.20
2019,05,08,23,56,12.20
2019,05,08,23,57,12.20
2019,05,08,23,58,12.10
2019,05,08,23,59,12.10
